GW4835 Weather Reports


time (UTC)temp
C
wind
direction
speed
KPH
gust
KPH
rain 1hr
cm
rain 24hr
cm
rain mn
cm
humidity
%
barometer
mb
20260903010718 27 20 0.0 0.0 0.00 0.00 0.00 85 1019.8
20260903010217 27 20 0.0 0.0 0.00 0.00 0.00 82 1019.6
20260903005717 27 20 0.0 0.0 0.00 0.00 0.00 82 1019.7
20260903005212 27 23 0.0 0.0 0.00 0.00 0.00 83 1019.7
20260903004707 27 18 0.0 0.0 0.00 0.00 0.00 82 1019.7
20260903004203 27 15 0.0 0.0 0.00 0.00 0.00 82 1019.6
20260903003657 28 16 0.0 0.0 0.00 0.00 0.00 82 1019.5
20260903003152 28 15 0.0 0.0 0.00 0.00 0.00 77 1019.5
20260903002647 28 15 0.0 0.0 0.00 0.00 0.00 78 1019.5
20260903002142 28 15 0.0 0.0 0.00 0.00 0.00 78 1019.4
20260903001636 28 16 0.0 0.0 0.00 0.00 0.00 75 1019.5
20260903001131 29 16 0.0 0.0 0.00 0.00 0.00 74 1019.5
20260903000626 29 16 0.0 0.0 0.00 0.00 0.00 74 1019.6
20260903000125 29 16 0.0 0.0 0.00 0.00 0.00 73 1019.4
20260902235625 30 14 0.0 0.0 0.00 0.00 0.00 72 1019.5
20260902235121 30 15 0.0 0.0 0.00 0.00 0.00 73 1019.4
20260902234619 30 15 0.0 0.0 0.00 0.00 0.00 70 1019.5
20260902234118 30 14 0.0 0.0 0.00 0.00 0.00 70 1019.2
20260902233614 30 15 0.0 0.0 0.00 0.00 0.00 70 1019.4
20260902233108 31 15 0.0 0.0 0.00 0.00 0.00 67 1019.3
20260902232607 31 12 0.0 1.6 0.00 0.00 0.00 66 1019.5
20260902232101 31 13 1.6 1.6 0.00 0.00 0.00 68 1019.3
20260902231555 31 16 0.0 1.6 0.00 0.00 0.00 70 1019.6
20260902231050 31 20 0.0 1.6 0.00 0.00 0.00 66 1019.4
20260902230544 31 14 0.0 1.6 0.00 0.00 0.00 68 1019.4
20260902230043 32 13 0.0 3.2 0.00 0.00 0.00 64 1019.7
20260902225539 32 18 0.0 1.6 0.00 0.00 0.00 64 1019.5
20260902225038 32 14 1.6 1.6 0.00 0.00 0.00 62 1019.6
20260902224537 32 54 1.6 3.2 0.00 0.00 0.00 62 1019.5
20260902224033 32 18 0.0 1.6 0.00 0.00 0.00 64 1019.6
20260902223529 32 13 0.0 4.8 0.00 0.00 0.00 63 1019.8
20260902223028 32 16 0.0 1.6 0.00 0.00 0.00 62 1019.5
20260902222527 32 19 0.0 0.0 0.00 0.00 0.00 64 1019.5
20260902222027 32 16 0.0 1.6 0.00 0.00 0.00 62 1019.8
20260902221526 32 14 1.6 3.2 0.00 0.00 0.00 61 1019.5
20260902221022 33 16 0.0 1.6 0.00 0.00 0.00 62 1019.7
20260902220517 33 8 0.0 1.6 0.00 0.00 0.00 61 1019.5
20260902220012 33 12 0.0 1.6 0.00 0.00 0.00 60 1019.6
20260902215508 33 13 0.0 4.8 0.00 0.00 0.00 60 1019.7
20260902215003 33 19 0.0 1.6 0.00 0.00 0.00 60 1019.8
20260902214502 32 18 0.0 3.2 0.00 0.00 0.00 63 1019.6
20260902214001 33 57 1.6 3.2 0.00 0.00 0.00 61 1019.8
20260902213458 33 14 6.4 6.4 0.00 0.00 0.00 59 1019.7
20260902212956 33 20 0.0 6.4 0.00 0.00 0.00 59 1019.8
20260902212452 33 12 0.0 3.2 0.00 0.00 0.00 60 1019.6
20260902211943 34 15 0.0 1.6 0.00 0.00 0.00 62 1019.5
20260902211438 34 11 0.0 3.2 0.00 0.00 0.00 57 1019.7
20260902210934 34 8 3.2 6.4 0.00 0.00 0.00 58 1019.9
20260902210434 34 13 1.6 6.4 0.00 0.00 0.00 59 1019.9
20260902205926 35 8 1.6 3.2 0.00 0.00 0.00 55 1019.8
20260902205422 34 20 0.0 3.2 0.00 0.00 0.00 55 1019.8
20260902204918 34 6 1.6 4.8 0.00 0.00 0.00 59 1019.9
20260902204417 35 20 0.0 3.2 0.00 0.00 0.00 57 1020.0
20260902203913 34 0 1.6 3.2 0.00 0.00 0.00 56 1020.0
20260902203407 33 21 1.6 1.6 0.00 0.00 0.00 62 1019.9
20260902202902 34 26 3.2 6.4 0.00 0.00 0.00 55 1019.9
20260902202357 33 8 3.2 3.2 0.00 0.00 0.00 54 1020.0
20260902201854 34 25 1.6 1.6 0.00 0.00 0.00 60 1020.0
20260902201354 35 21 0.0 4.8 0.00 0.00 0.00 54 1020.0
20260902200849 35 2 1.6 1.6 0.00 0.00 0.00 52 1020.1
20260902200344 34 14 0.0 1.6 0.00 0.00 0.00 57 1020.2
20260902195839 35 4 1.6 4.8 0.00 0.00 0.00 50 1020.1
20260902195338 35 18 1.6 3.2 0.00 0.00 0.00 50 1020.3
20260902194834 35 11 1.6 3.2 0.00 0.00 0.00 53 1020.3
20260902194333 35 24 1.6 4.8 0.00 0.00 0.00 53 1020.3
20260902193829 35 20 0.0 3.2 0.00 0.00 0.00 53 1020.3
20260902193325 35 14 3.2 6.4 0.00 0.00 0.00 58 1020.4
20260902192824 35 7 1.6 4.8 0.00 0.00 0.00 54 1020.5
20260902192322 35 356 1.6 3.2 0.00 0.00 0.00 54 1020.7
20260902191821 34 10 0.0 1.6 0.00 0.00 0.00 57 1020.7
20260902191317 33 25 0.0 1.6 0.00 0.00 0.00 58 1020.8
20260902190812 33 21 1.6 3.2 0.00 0.00 0.00 57 1020.9
20260902190311 34 17 4.8 6.4 0.00 0.00 0.00 58 1020.9
20260902185808 33 52 3.2 3.2 0.00 0.00 0.00 57 1021.0
20260902185306 35 56 1.6 6.4 0.00 0.00 0.00 55 1020.9
20260902184759 34 14 0.0 1.6 0.00 0.00 0.00 59 1020.9
20260902184254 33 16 1.6 6.4 0.00 0.00 0.00 58 1021.0
20260902183749 33 7 1.6 4.8 0.00 0.00 0.00 61 1020.9
20260902183246 32 11 1.6 4.8 0.00 0.00 0.00 61 1020.9
20260902182742 33 44 1.6 6.4 0.00 0.00 0.00 64 1021.1
20260902182238 33 14 0.0 1.6 0.00 0.00 0.00 61 1021.0
20260902181734 33 22 0.0 1.6 0.00 0.00 0.00 61 1021.0
20260902181234 33 16 0.0 4.8 0.00 0.00 0.00 63 1021.2
20260902180729 32 11 1.6 3.2 0.00 0.00 0.00 65 1021.2
20260902180224 32 13 1.6 6.4 0.00 0.00 0.00 64 1021.3
20260902175719 32 10 4.8 6.4 0.00 0.00 0.00 62 1021.3
20260902175215 32 8 1.6 1.6 0.00 0.00 0.00 62 1021.5
20260902174711 33 6 4.8 6.4 0.00 0.00 0.00 61 1021.5
20260902174206 33 53 1.6 3.2 0.00 0.00 0.00 60 1021.4
20260902173701 34 9 3.2 4.8 0.00 0.00 0.00 57 1021.5
20260902173156 33 14 1.6 3.2 0.00 0.00 0.00 60 1021.5
20260902172651 32 13 1.6 1.6 0.00 0.00 0.00 61 1021.6
20260902172150 32 23 0.0 3.2 0.00 0.00 0.00 63 1021.7
20260902171645 33 5 3.2 3.2 0.00 0.00 0.00 61 1021.7
20260902171141 33 26 0.0 3.2 0.00 0.00 0.00 61 1021.7
20260902170637 33 26 0.0 1.6 0.00 0.00 0.00 62 1021.6
20260902170132 34 24 1.6 3.2 0.00 0.00 0.00 59 1021.8
20260902165627 34 16 1.6 3.2 0.00 0.00 0.00 61 1021.8
20260902165126 33 20 0.0 3.2 0.00 0.00 0.00 61 1021.6
20260902164622 33 6 4.8 6.4 0.00 0.00 0.00 62 1022.0
20260902164120 34 19 0.0 1.6 0.00 0.00 0.00 58 1021.9
20260902163616 33 18 1.6 3.2 0.00 0.00 0.00 65 1021.9
20260902163114 33 12 1.6 4.8 0.00 0.00 0.00 61 1022.0
20260902162614 33 16 1.6 1.6 0.00 0.00 0.00 61 1021.9
20260902162109 33 22 1.6 3.2 0.00 0.00 0.00 64 1021.9
20260902161604 33 30 1.6 3.2 0.00 0.00 0.00 62 1021.9
20260902161100 33 14 0.0 1.6 0.00 0.00 0.00 64 1022.0
20260902160555 33 15 1.6 3.2 0.00 0.00 0.00 64 1021.9
20260902160051 33 16 1.6 1.6 0.00 0.00 0.00 63 1022.1
20260902155544 33 35 1.6 3.2 0.00 0.00 0.00 64 1022.0
20260902155043 33 15 0.0 1.6 0.00 0.00 0.00 65 1022.0
20260902154538 33 23 1.6 3.2 0.00 0.00 0.00 62 1022.4
20260902154038 33 33 1.6 1.6 0.00 0.00 0.00 66 1022.3
20260902153537 32 9 3.2 3.2 0.00 0.00 0.00 66 1022.1
20260902153033 32 23 0.0 3.2 0.00 0.00 0.00 67 1022.4
20260902152529 32 22 0.0 3.2 0.00 0.00 0.00 66 1022.0
20260902152024 32 16 0.0 1.6 0.00 0.00 0.00 68 1022.4
20260902151520 32 16 0.0 3.2 0.00 0.00 0.00 69 1022.4
20260902151019 32 12 3.2 4.8 0.00 0.00 0.00 68 1022.3
20260902150515 32 18 0.0 1.6 0.00 0.00 0.00 72 1022.5
20260902150010 32 346 3.2 4.8 0.00 0.00 0.00 72 1022.5
20260902145505 31 22 0.0 3.2 0.00 0.00 0.00 71 1022.4
20260902145005 31 23 1.6 3.2 0.00 0.00 0.00 73 1022.3
20260902144501 31 13 1.6 3.2 0.00 0.00 0.00 70 1022.4
20260902143956 31 16 1.6 3.2 0.00 0.00 0.00 73 1022.4
20260902143452 31 23 0.0 4.8 0.00 0.00 0.00 74 1022.3
20260902142947 31 14 0.0 1.6 0.00 0.00 0.00 75 1022.5
20260902142442 31 14 0.0 3.2 0.00 0.00 0.00 73 1022.4
20260902141937 31 18 0.0 0.0 0.00 0.00 0.00 71 1022.5
20260902141432 30 18 0.0 1.6 0.00 0.00 0.00 77 1022.4
20260902140932 30 10 1.6 3.2 0.00 0.00 0.00 74 1022.3
20260902140427 30 18 0.0 3.2 0.00 0.00 0.00 74 1022.2
20260902135927 30 10 0.0 0.0 0.00 0.00 0.00 76 1022.2
20260902135423 29 22 0.0 1.6 0.00 0.00 0.00 78 1022.3
20260902134921 28 21 0.0 1.6 0.00 0.00 0.00 77 1022.4
20260902134418 28 22 0.0 1.6 0.00 0.00 0.00 82 1022.3
20260902133913 27 23 0.0 1.6 0.00 0.00 0.00 82 1022.1
20260902133412 27 17 0.0 0.0 0.00 0.00 0.00 85 1022.1
20260902132907 27 17 0.0 1.6 0.00 0.00 0.00 86 1022.4
20260902132403 26 18 0.0 1.6 0.00 0.00 0.00 86 1022.2
20260902131858 26 20 0.0 1.6 0.00 0.00 0.00 87 1022.2
20260902131355 26 20 0.0 0.0 0.00 0.00 0.00 90 1022.1
20260902130853 26 68 0.0 1.6 0.00 0.00 0.00 92 1022.3
20260902130350 25 22 0.0 1.6 0.00 0.00 0.00 90 1022.3
20260902125844 25 16 0.0 0.0 0.00 0.00 0.00 90 1022.1
20260902125341 25 15 0.0 0.0 0.00 0.00 0.00 91 1022.3
20260902124837 25 12 0.0 0.0 0.00 0.00 0.00 91 1022.2
20260902124332 25 17 0.0 0.0 0.00 0.00 0.00 92 1022.2
20260902123827 24 21 0.0 0.0 0.00 0.00 0.00 92 1022.1
20260902123324 24 18 0.0 0.0 0.00 0.00 0.00 93 1022.2
20260902122822 23 13 0.0 1.6 0.00 0.00 0.00 93 1022.0
20260902122318 23 7 0.0 0.0 0.00 0.00 0.00 95 1022.0
20260902121818 23 18 0.0 1.6 0.00 0.00 0.00 96 1022.0
20260902121313 22 20 0.0 0.0 0.00 0.00 0.00 99 1021.9
20260902120808 22 12 0.0 0.0 0.00 0.00 0.00 99 1022.0
20260902120305 22 18 0.0 0.0 0.00 0.00 0.00 99 1022.1
20260902115759 21 15 0.0 0.0 0.00 0.00 0.00 99 1021.8
20260902115255 21 12 0.0 0.0 0.00 0.00 0.00 99 1022.0
20260902114752 21 12 0.0 0.0 0.00 0.00 0.00 99 1021.7
20260902114248 21 13 0.0 0.0 0.00 0.00 0.00 99 1021.8
20260902113747 21 14 0.0 0.0 0.00 0.00 0.00 99 1021.6
20260902113243 21 14 0.0 0.0 0.00 0.00 0.00 99 1021.7
20260902112742 21 16 0.0 0.0 0.00 0.00 0.00 99 1021.7
20260902112240 21 16 0.0 0.0 0.00 0.00 0.00 99 1021.6
20260902111734 21 13 0.0 0.0 0.00 0.00 0.00 99 1021.6
20260902111231 21 11 0.0 1.6 0.00 0.00 0.00 99 1021.4
20260902110726 21 11 0.0 0.0 0.00 0.00 0.00 99 1021.5
20260902110222 21 14 0.0 0.0 0.00 0.00 0.00 99 1021.5
20260902105721 21 14 0.0 0.0 0.00 0.00 0.00 99 1021.5
20260902105217 21 16 0.0 0.0 0.00 0.00 0.00 99 1021.7
20260902104712 21 14 0.0 0.0 0.00 0.00 0.00 99 1021.6
20260902104209 21 14 0.0 0.0 0.00 0.00 0.00 99 1021.4
20260902103707 21 14 0.0 0.0 0.00 0.00 0.00 99 1021.6
20260902103202 21 14 0.0 0.0 0.00 0.00 0.00 99 1021.5
20260902102658 21 14 0.0 0.0 0.00 0.00 0.00 99 1021.4
20260902102155 21 14 0.0 0.0 0.00 0.00 0.00 99 1021.5
20260902101650 21 14 0.0 0.0 0.00 0.00 0.00 99 1021.4
20260902101150 21 14 0.0 0.0 0.00 0.00 0.00 99 1021.5
20260902100644 21 14 0.0 0.0 0.00 0.00 0.00 99 1021.5
20260902100139 21 14 0.0 0.0 0.00 0.00 0.00 99 1021.5
20260902095638 21 14 0.0 0.0 0.00 0.00 0.00 99 1021.3
20260902095138 21 14 0.0 0.0 0.00 0.00 0.00 99 1021.4
20260902094633 21 14 0.0 0.0 0.00 0.00 0.00 99 1021.3
20260902094130 21 14 0.0 0.0 0.00 0.00 0.00 99 1021.5
20260902093629 21 14 0.0 0.0 0.00 0.00 0.00 99 1021.3
20260902093118 21 14 0.0 0.0 0.00 0.00 0.00 99 1021.4
20260902092618 22 14 0.0 0.0 0.00 0.00 0.00 99 1021.4
20260902092113 21 14 0.0 0.0 0.00 0.00 0.00 99 1021.4
20260902091608 22 14 0.0 0.0 0.00 0.00 0.00 99 1021.2
20260902091104 22 14 0.0 0.0 0.00 0.00 0.00 99 1021.3
20260902090600 22 14 0.0 0.0 0.00 0.00 0.00 99 1021.2
20260902090100 22 14 0.0 0.0 0.00 0.00 0.00 99 1021.2
20260902085559 22 14 0.0 0.0 0.00 0.00 0.00 99 1021.3
20260902085055 22 14 0.0 0.0 0.00 0.00 0.00 99 1021.2
20260902084551 22 14 0.0 0.0 0.00 0.00 0.00 99 1021.0
20260902084047 22 14 0.0 0.0 0.00 0.00 0.00 99 1021.0
20260902083542 22 14 0.0 0.0 0.00 0.00 0.00 99 1020.9
20260902083041 22 14 0.0 0.0 0.00 0.00 0.00 99 1021.0
20260902082537 22 14 0.0 0.0 0.00 0.00 0.00 99 1020.9
20260902082033 22 14 0.0 0.0 0.00 0.00 0.00 99 1020.7
20260902081530 22 14 0.0 0.0 0.00 0.00 0.00 99 1020.8
20260902081029 22 14 0.0 0.0 0.00 0.00 0.00 99 1020.7
20260902080525 22 14 0.0 0.0 0.00 0.00 0.00 99 1020.8
20260902080022 22 15 0.0 0.0 0.00 0.00 0.00 99 1020.8
20260902075511 22 16 0.0 0.0 0.00 0.00 0.00 99 1020.8
20260902075007 22 16 0.0 0.0 0.00 0.00 0.00 99 1020.8
20260902074502 22 16 0.0 0.0 0.00 0.00 0.00 99 1020.8
20260902074001 22 16 0.0 0.0 0.00 0.00 0.00 99 1020.6
20260902073458 22 16 0.0 0.0 0.00 0.00 0.00 99 1020.7
20260902072954 22 16 0.0 0.0 0.00 0.00 0.00 99 1020.7
20260902072449 22 16 0.0 0.0 0.00 0.00 0.00 99 1020.6
20260902071945 23 16 0.0 0.0 0.00 0.00 0.00 99 1020.6
20260902071445 23 16 0.0 0.0 0.00 0.00 0.00 99 1020.6
20260902070941 22 16 0.0 0.0 0.00 0.00 0.00 99 1020.6
20260902070437 23 16 0.0 0.0 0.00 0.00 0.00 99 1020.8
20260902065935 23 16 0.0 0.0 0.00 0.00 0.00 99 1020.7
20260902065431 23 15 0.0 0.0 0.00 0.00 0.00 99 1020.8
20260902064926 22 15 0.0 0.0 0.00 0.00 0.00 99 1020.8
20260902064421 22 15 0.0 0.0 0.00 0.00 0.00 99 1020.6
20260902063917 22 15 0.0 0.0 0.00 0.00 0.00 99 1020.5
20260902063417 23 15 0.0 0.0 0.00 0.00 0.00 99 1020.8
20260902062912 23 15 0.0 0.0 0.00 0.00 0.00 99 1020.7
20260902062411 23 15 0.0 0.0 0.00 0.00 0.00 99 1020.7
20260902061911 23 15 0.0 0.0 0.00 0.00 0.00 98 1020.8
20260902061406 23 15 0.0 0.0 0.00 0.00 0.00 98 1020.6
20260902060902 23 15 0.0 0.0 0.00 0.00 0.00 97 1020.8
20260902060358 23 15 0.0 0.0 0.00 0.00 0.00 97 1020.7
20260902055853 23 14 0.0 0.0 0.00 0.00 0.00 96 1020.7
20260902055349 23 15 0.0 0.0 0.00 0.00 0.00 96 1020.8
20260902054845 23 15 0.0 0.0 0.00 0.00 0.00 95 1020.8
20260902054340 23 15 0.0 0.0 0.00 0.00 0.00 94 1020.6
20260902053835 24 15 0.0 0.0 0.00 0.00 0.00 94 1020.7
20260902053330 24 15 0.0 0.0 0.00 0.00 0.00 92 1020.7
20260902052829 24 15 0.0 0.0 0.00 0.00 0.00 92 1020.6
20260902052325 24 15 0.0 0.0 0.00 0.00 0.00 92 1020.8
20260902051820 24 15 0.0 0.0 0.00 0.00 0.00 92 1020.6
20260902051320 25 15 0.0 0.0 0.00 0.00 0.00 91 1020.6
20260902050814 25 16 0.0 0.0 0.00 0.00 0.00 90 1020.6
20260902050314 25 16 0.0 0.0 0.00 0.00 0.00 90 1020.7
20260902045809 25 16 0.0 0.0 0.00 0.00 0.00 89 1020.7
20260902045306 25 16 0.0 0.0 0.00 0.00 0.00 89 1020.7
20260902044801 25 323 0.0 0.0 0.00 0.00 0.00 88 1020.7
20260902044256 26 27 0.0 0.0 0.00 0.00 0.00 87 1020.7
20260902043751 26 22 0.0 1.6 0.00 0.00 0.00 85 1020.6
20260902043247 26 23 0.0 1.6 0.00 0.00 0.00 86 1020.8
20260902042746 25 20 0.0 1.6 0.00 0.00 0.00 86 1020.6
20260902042240 25 36 0.0 1.6 0.00 0.00 0.00 88 1020.7
20260902041736 25 36 0.0 0.0 0.00 0.00 0.00 87 1020.6
20260902041236 25 358 0.0 0.0 0.00 0.00 0.00 89 1020.9
20260902040735 25 16 0.0 0.0 0.00 0.00 0.00 89 1020.7
20260902040231 26 14 0.0 0.0 0.00 0.00 0.00 88 1020.8
20260902035730 26 16 0.0 0.0 0.00 0.00 0.00 86 1020.9
20260902035225 26 18 0.0 0.0 0.00 0.00 0.00 86 1020.7
20260902034723 26 337 0.0 1.6 0.00 0.00 0.00 85 1020.9
20260902034218 26 22 0.0 1.6 0.00 0.00 0.00 84 1020.7
20260902033717 26 22 1.6 1.6 0.00 0.00 0.00 84 1020.8
20260902033212 26 18 0.0 0.0 0.00 0.00 0.00 84 1020.9
20260902032711 26 19 0.0 1.6 0.00 0.00 0.00 83 1020.7
20260902032206 26 21 0.0 1.6 0.00 0.00 0.00 84 1020.8
20260902031705 26 23 1.6 1.6 0.00 0.00 0.00 82 1020.8
20260902031201 26 21 0.0 1.6 0.00 0.00 0.00 83 1020.8
20260902030656 26 20 0.0 1.6 0.00 0.00 0.00 83 1020.6
20260902030155 26 20 0.0 1.6 0.00 0.00 0.00 83 1020.6
20260902025650 26 18 0.0 1.6 0.00 0.00 0.00 85 1020.7
20260902025145 26 18 0.0 1.6 0.00 0.00 0.00 84 1020.6
20260902024641 26 17 0.0 0.0 0.00 0.00 0.00 88 1020.7
20260902024136 26 15 0.0 0.0 0.00 0.00 0.00 82 1020.9
20260902023631 27 15 0.0 0.0 0.00 0.00 0.00 81 1020.7
20260902023126 27 15 0.0 0.0 0.00 0.00 0.00 82 1020.8
20260902022625 27 88 0.0 0.0 0.00 0.00 0.00 80 1020.7
20260902022121 27 21 0.0 1.6 0.00 0.00 0.00 80 1020.7
20260902021617 28 22 0.0 1.6 0.00 0.00 0.00 76 1020.7
20260902021112 28 23 1.6 3.2 0.00 0.00 0.00 77 1020.7
20260902020608 28 24 1.6 1.6 0.00 0.00 0.00 77 1020.5
20260902020103 28 27 1.6 1.6 0.00 0.00 0.00 76 1020.7
20260902015559 28 23 1.6 1.6 0.00 0.00 0.00 77 1020.4
20260902015054 28 30 1.6 1.6 0.00 0.00 0.00 75 1020.7
20260902014550 28 28 1.6 1.6 0.00 0.00 0.00 76 1020.6
20260902014045 28 26 1.6 1.6 0.00 0.00 0.00 75 1020.7
20260902013545 28 24 1.6 1.6 0.00 0.00 0.00 75 1020.6
20260902013041 28 50 1.6 1.6 0.00 0.00 0.00 76 1020.6
20260902012536 28 28 1.6 1.6 0.00 0.00 0.00 76 1020.5
20260902012031 28 23 0.0 1.6 0.00 0.00 0.00 76 1020.5
20260902011527 28 20 0.0 0.0 0.00 0.00 0.00 77 1020.4